Date String (YYYY-MM-DD hh:mm:ss) UTC,Instrument flags,absolute air pressure of the measurement (hPa),sample flow rate (lpm),inlet stack bypass flow (lpm),air temperature of the measurement (°C),ambient temperature measured by the external sensor (°C),aerosol sample conditioner tube jacket temperature (°C),OPC LED temperature (°C),internal box temperature (°C),relative humidity of the measurement (%),span deviation,mass concentration of particles derived from Lorenz-Mie calculation of OPC scattering (μg/m³),mass concentration of particles derived from Lorenz-Mie calculation of OPC scattering (μg/m³),mass concentration of particles derived from Lorenz-Mie calculation of OPC scattering (μg/m³)
DateTimeUTC,F1_M11,P_M11,Q1_M11,Q2_M11,T1_M11,T2_M11,T3_M11,T4_M11,T5_M11,U1_M11,ZSPAN_M11,X0_M11,X2_M11,X1_M11
2023-10-27 00:00:00,SystemResetWarning,0827.7,5.01,000.00,028.0,026.5,000.0,036.5,029.5,20.2,0001.0,0007.66,0004.14,0003.76
2023-10-27 00:01:00,SystemResetWarning,0827.7,4.99,000.00,028.0,026.5,000.0,036.5,029.5,20.3,0000.9,0008.25,0004.17,0003.77
2023-10-27 00:02:00,SystemResetWarning,0827.7,5.00,000.00,028.0,026.5,000.0,036.5,029.5,20.3,0000.2,0008.95,0004.21,0003.79
2023-10-27 00:03:00,SystemResetWarning,0827.7,5.00,000.00,028.0,026.5,000.0,036.5,029.4,20.3,0000.0,0009.27,0004.21,0003.81
2023-10-27 00:04:00,SystemResetWarning,0827.8,5.00,000.00,027.9,026.5,000.0,036.5,029.4,20.3,-000.3,0009.42,0004.24,0003.83
2023-10-27 00:05:00,SystemResetWarning,0827.9,4.99,000.00,027.9,026.5,000.0,036.5,029.4,20.3,-000.0,0009.76,0004.31,0003.85
2023-10-27 00:06:00,SystemResetWarning,0828.0,5.00,000.00,027.9,026.5,000.0,036.5,029.5,20.3,0000.2,0009.71,0004.30,0003.85
2023-10-27 00:07:00,SystemResetWarning,0828.1,5.00,000.00,027.9,026.5,000.0,036.5,029.5,20.4,0000.1,0009.72,0004.29,0003.85
2023-10-27 00:08:00,SystemResetWarning,0828.1,5.00,000.00,027.9,026.5,000.0,036.5,029.5,20.4,-000.5,0009.97,0004.30,0003.86
2023-10-27 00:09:00,SystemResetWarning,0828.1,5.00,000.00,027.9,026.5,000.0,036.5,029.5,20.4,-000.2,0009.56,0004.34,0003.88
2023-10-27 00:10:00,SystemResetWarning,0828.1,5.00,000.00,027.9,026.5,000.0,036.5,029.5,20.4,0000.1,0010.60,0004.36,0003.88
2023-10-27 00:11:00,SystemResetWarning,0828.2,5.01,000.00,027.9,026.5,000.0,036.5,029.5,20.4,0000.5,0010.57,0004.37,0003.87
2023-10-27 00:12:00,SystemResetWarning,0828.2,4.99,000.00,027.9,026.5,000.0,036.5,029.5,20.3,0000.4,0010.28,0004.35,0003.86
2023-10-27 00:13:00,SystemResetWarning,0828.2,5.00,000.00,027.9,026.5,000.0,036.5,029.5,20.3,0000.4,0009.46,0004.32,0003.86
2023-10-27 00:14:00,SystemResetWarning,0828.2,5.00,000.00,027.9,026.5,000.0,036.5,029.5,20.3,0000.5,0008.94,0004.33,0003.86
2023-10-27 00:15:00,SystemResetWarning,0828.2,4.99,000.00,027.9,026.6,000.0,036.5,029.6,20.3,0000.2,0008.83,0004.32,0003.87
2023-10-27 00:16:00,SystemResetWarning,0828.2,4.99,000.00,027.9,026.6,000.0,036.5,029.6,20.3,-000.2,0008.49,0004.25,0003.86
2023-10-27 00:17:00,SystemResetWarning,0828.4,5.01,000.00,027.9,026.6,000.0,036.5,029.5,20.3,-000.9,0008.38,0004.21,0003.82
2023-10-27 00:18:00,SystemResetWarning,0828.4,5.01,000.00,027.9,026.5,000.0,036.5,029.5,20.3,-000.9,0008.23,0004.09,0003.71
2023-10-27 00:19:00,SystemResetWarning,0828.4,5.00,000.00,027.9,026.5,000.0,036.4,029.5,20.4,-000.5,0007.91,0003.94,0003.58
2023-10-27 00:20:00,SystemResetWarning,0828.5,5.00,000.00,027.9,026.5,000.0,036.4,029.5,20.4,0000.0,0007.47,0003.74,0003.42
2023-10-27 00:21:00,SystemResetWarning,0828.6,5.00,000.00,027.9,026.4,000.0,036.4,029.5,20.4,0000.0,0005.76,0003.52,0003.26
2023-10-27 00:22:00,SystemResetWarning,0828.6,5.00,000.00,027.9,026.4,000.0,036.4,029.5,20.4,0000.0,0004.54,0003.32,0003.09
2023-10-27 00:23:00,SystemResetWarning,0828.6,5.00,000.00,027.8,026.4,000.0,036.4,029.4,20.5,0000.0,0003.91,0003.10,0002.84
2023-10-27 00:24:00,SystemResetWarning,0828.6,5.00,000.00,027.8,026.3,000.0,036.4,029.4,20.5,0000.0,0003.71,0002.83,0002.58
2023-10-27 00:25:00,SystemResetWarning,0828.6,5.00,000.00,027.8,026.3,000.0,036.4,029.4,20.5,0000.0,0003.43,0002.48,0002.27
2023-10-27 00:26:00,SystemResetWarning,0828.6,4.99,000.00,027.8,026.4,000.0,036.4,029.4,20.5,0000.0,0003.02,0002.15,0001.96
2023-10-27 00:27:00,SystemResetWarning,0828.6,5.00,000.00,027.8,026.4,000.0,036.4,029.4,20.5,0000.0,0002.69,0001.85,0001.67
2023-10-27 00:28:00,SystemResetWarning,0828.5,5.00,000.00,027.8,026.4,000.0,036.4,029.4,20.5,0000.0,0002.35,0001.57,0001.42
2023-10-27 00:29:00,SystemResetWarning,0828.5,5.00,000.00,027.8,026.4,000.0,036.4,029.4,20.5,0000.0,0002.23,0001.45,0001.31
2023-10-27 00:30:00,SystemResetWarning,0828.5,5.00,000.00,027.8,026.4,000.0,036.4,029.4,20.5,0000.0,0002.52,0001.40,0001.25
2023-10-27 00:31:00,SystemResetWarning,0828.4,5.00,000.00,027.8,026.4,000.0,036.4,029.4,20.5,0000.0,0002.51,0001.36,0001.21
2023-10-27 00:32:00,SystemResetWarning,0828.4,5.00,000.00,027.8,026.4,000.0,036.4,029.4,20.5,0000.0,0002.55,0001.34,0001.19
2023-10-27 00:33:00,SystemResetWarning,0828.4,5.00,000.00,027.8,026.4,000.0,036.4,029.4,20.5,0000.0,0002.53,0001.32,0001.16
2023-10-27 00:34:00,SystemResetWarning,0828.4,5.00,000.00,027.8,026.3,000.0,036.3,029.3,20.5,0000.0,0002.58,0001.32,0001.12
2023-10-27 00:35:00,SystemResetWarning,0828.4,5.00,000.00,027.8,026.3,000.0,036.3,029.3,20.4,0000.0,0002.51,0001.32,0001.09
2023-10-27 00:36:00,SystemResetWarning,0828.4,5.00,000.00,027.8,026.3,000.0,036.3,029.3,20.4,0000.0,0002.23,0001.28,0001.07
2023-10-27 00:37:00,SystemResetWarning,0828.5,5.01,000.00,027.7,026.2,000.0,036.3,029.3,20.3,0000.0,0002.28,0001.29,0001.05
2023-10-27 00:38:00,SystemResetWarning,0828.6,5.00,000.00,027.7,026.2,000.0,036.3,029.2,20.3,0000.0,0002.27,0001.29,0001.06
2023-10-27 00:39:00,SystemResetWarning,0828.6,5.00,000.00,027.7,026.1,000.0,036.3,029.2,20.2,0000.0,0002.31,0001.31,0001.07
2023-10-27 00:40:00,SystemResetWarning,0828.6,5.00,000.00,027.6,026.0,000.0,036.3,029.1,20.2,0000.0,0002.35,0001.33,0001.08
2023-10-27 00:41:00,SystemResetWarning,0828.6,5.00,000.00,027.6,026.0,000.0,036.2,029.1,20.2,0000.0,0002.06,0001.32,0001.08
2023-10-27 00:42:00,SystemResetWarning,0828.6,4.99,000.00,027.6,026.0,000.0,036.2,029.1,20.2,0000.0,0002.02,0001.36,0001.09
2023-10-27 00:43:00,SystemResetWarning,0828.6,4.99,000.00,027.6,026.1,000.0,036.2,029.1,20.1,0000.0,0001.95,0001.37,0001.10
2023-10-27 00:44:00,SystemResetWarning,0828.6,5.00,000.00,027.6,026.0,000.0,036.2,029.1,20.1,0000.0,0002.46,0001.37,0001.11
2023-10-27 00:45:00,SystemResetWarning,0828.6,5.00,000.00,027.6,026.0,000.0,036.2,029.1,20.1,0000.0,0002.83,0001.36,0001.11
2023-10-27 00:46:00,SystemResetWarning,0828.7,5.01,000.00,027.5,026.0,000.0,036.2,029.0,20.1,0000.0,0002.77,0001.34,0001.11
2023-10-27 00:47:00,SystemResetWarning,0828.8,5.00,000.00,027.5,025.9,000.0,036.2,029.0,20.1,0000.0,0002.80,0001.36,0001.13
2023-10-27 00:48:00,SystemResetWarning,0828.8,5.00,000.00,027.5,025.9,000.0,036.1,029.0,20.1,0000.0,0002.81,0001.37,0001.14
2023-10-27 00:49:00,SystemResetWarning,0828.9,5.00,000.00,027.5,025.9,000.0,036.1,029.0,20.0,0000.0,0002.91,0001.39,0001.16
2023-10-27 00:50:00,SystemResetWarning,0829.0,5.01,000.00,027.5,025.9,000.0,036.1,029.0,20.0,0000.0,0002.94,0001.40,0001.17
2023-10-27 00:51:00,SystemResetWarning,0829.0,5.01,000.00,027.5,025.9,000.0,036.1,029.0,20.0,0000.0,0002.95,0001.41,0001.18
2023-10-27 00:52:00,SystemResetWarning,0829.0,5.00,000.00,027.5,026.0,000.0,036.1,029.0,20.0,0000.0,0003.18,0001.45,0001.21
2023-10-27 00:53:00,SystemResetWarning,0828.9,5.01,000.00,027.4,025.9,000.0,036.1,028.9,20.0,0000.0,0003.23,0001.45,0001.23
2023-10-27 00:54:00,SystemResetWarning,0829.0,5.00,000.00,027.4,025.9,000.0,036.0,028.9,20.0,0000.0,0003.23,0001.46,0001.24
2023-10-27 00:55:00,SystemResetWarning,0829.1,5.00,000.00,027.4,025.8,000.0,036.0,028.9,20.0,0000.0,0003.11,0001.50,0001.28
2023-10-27 00:56:00,SystemResetWarning,0829.1,5.00,000.00,027.4,025.8,000.0,036.0,028.9,20.0,0000.0,0002.42,0001.52,0001.31
2023-10-27 00:57:00,SystemResetWarning,0829.1,5.00,000.00,027.4,025.9,000.0,036.0,028.9,19.9,0000.0,0002.45,0001.55,0001.34
2023-10-27 00:58:00,SystemResetWarning,0829.1,5.00,000.00,027.4,025.9,000.0,036.0,028.9,20.0,0000.0,0002.46,0001.57,0001.36
2023-10-27 00:59:00,SystemResetWarning,0829.1,5.00,000.00,027.4,025.9,000.0,036.0,029.0,19.9,0000.0,0002.42,0001.55,0001.36
